Content
SEND FEEDBACK

Daily
Averages
Monthly
Summary
United States of America

WILMINGTON, NORTH CAROLINA


Home > North America > United States > North Carolina
Elevation: 72 feet     Latitude: 34 16N     Longitude: 077 54W

WEATHER
 
SELECT A DAY
Number of Records: 209,081;   Date Range: 1/1/95 - 9/16/14
 
SHARE

PRINT THIS DATA

[ ← Previous Day ]
WEATHER ALMANAC - MARCH 23, 2014
[ Next Day → ]
[ °C ]   °F
Weather ElementAverageHighLow
Temperature57.8 °F68 °F (1:53 pm)45 °F (11:29 pm)
Dewpoint52.5 °F59 °F (1:53 am)37.9 °F (11:53 pm)
Humidity83.2 %97 % (6:53 am)59 % (6:53 pm)
Barometer29.96 in30.11 in (11:29 pm)29.87 in (3:53 pm)
Wind Speed6.9 mph17.3 mph (6:53 pm)
Wind Gust23 mph (11:29 pm)
Weather ElementAverage
Visibility5.9 mi
Wind DirectionSSW (198.8 °)

Weather ElementTotal
Precipitation---
Heating Degree Days8.5 (Base 65)
Growing Degree Days6.5 (Base 50)
Averaged from 40 records on March 23, 2014
WEATHER CONDITIONS BREAKOUT
WIND DIRECTION BREAKOUT
WEATHER BY HOUR - MARCH 23, 2014
[ °C ]   °F
Local TimeTemperatureDewpointHumidityBarometerVisibilityWind DirectionWind SpeedGust SpeedPrecipitationEventsConditions
1:53 AM62.1 °F59.0 °F90 %29.99 in8.0 miSSW (210°)4.6 mphScattered Clouds
2:53 AM61.0 °F59.0 °F93 %29.97 in7.0 miSSW (210°)4.6 mphClear
3:53 AM61.0 °F59.0 °F93 %29.94 in6.0 miSW (220°)4.6 mphClear
4:53 AM60.1 °F57.9 °F93 %29.93 in4.0 miWSW (240°)4.6 mphClear
5:03 AM59.0 °F57.9 °F96 %29.93 in2.0 miSW (230°)3.5 mphScattered Clouds
5:13 AM60.1 °F57.9 °F93 %29.93 in1.5 miSW (220°)3.5 mphScattered Clouds
5:20 AM59.0 °F57.0 °F93 %29.93 in1.0 miSW (220°)3.5 mphPartly Cloudy
5:26 AM60.1 °F57.9 °F93 %29.93 in2.0 miSSW (210°)3.5 mphPartly Cloudy
5:36 AM59.0 °F57.0 °F93 %29.93 in1.0 miWest (270°)3.5 mphMist
5:48 AM59.0 °F57.2 °F94 %29.92 in0.5 miCalmFogFog
5:53 AM59.0 °F57.0 °F93 %29.92 in0.2 miCalmFogFog
6:36 AM57.9 °F55.9 °F93 %29.92 in0.2 miCalmFogFog
6:53 AM57.9 °F57.0 °F97 %29.93 in0.2 miCalmFogFog
7:53 AM60.1 °F57.9 °F93 %29.93 in0.2 miCalmFogFog
8:53 AM60.1 °F59.0 °F96 %29.95 in0.2 miNW (320°)3.5 mphFogFog
9:53 AM61.0 °F59.0 °F93 %29.95 in0.2 miNNW (330°)4.6 mphFogFog
10:00 AM61.0 °F59.0 °F93 %29.95 in0.8 miNNW (340°)3.5 mphOvercast
10:12 AM60.1 °F59.0 °F96 %29.96 in1.8 miNNW (330°)5.8 mphOvercast
10:15 AM61.0 °F59.0 °F93 %29.96 in3.0 miNNW (330°)4.6 mphOvercast
10:53 AM61.0 °F57.9 °F90 %29.96 in8.0 miNW (310°)4.6 mphOvercast
11:39 AM66.0 °F57.9 °F75 %29.95 in10.0 miCalmScattered Clouds
11:53 AM66.9 °F57.9 °F73 %29.94 in10.0 miSouth (180°)3.5 mphClear
12:53 PM66.9 °F59.0 °F76 %29.92 in10.0 miEast (100°)9.2 mphClear
1:53 PM68.0 °F57.0 °F68 %29.90 in10.0 miESE (120°)8.1 mphClear
2:53 PM66.0 °F55.9 °F70 %29.88 in8.0 miESE (120°)10.4 mphClear
3:53 PM63.0 °F55.0 °F75 %29.87 in9.0 miEast (100°)9.2 mphMostly Cloudy
4:22 PM63.0 °F55.0 °F75 %29.88 in9.0 miNNE (20°)5.8 mphOvercast
4:53 PM61.0 °F55.0 °F81 %29.90 in8.0 miENE (60°)8.1 mph0.00 inOvercast
5:44 PM57.9 °F45.0 °F62 %29.90 in10.0 miNorth (10°)13.8 mph0.00 inRainLight Rain
5:53 PM57.0 °F44.1 °F62 %29.91 in10.0 miNorth (360°)10.4 mph0.00 inOvercast
6:53 PM55.0 °F41.0 °F59 %29.96 in10.0 miNorth (360°)17.3 mph21.9 mph0.00 inOvercast
7:53 PM48.9 °F39.9 °F71 %30.01 in10.0 miNorth (10°)17.3 mphOvercast
8:20 PM48.9 °F39.9 °F71 %30.02 in9.0 miNorth (360°)15.0 mph21.9 mphOvercast
8:53 PM48.0 °F39.9 °F74 %30.04 in8.0 miNorth (360°)10.4 mph20.7 mph0.00 inRainLight Rain
9:19 PM46.9 °F39.9 °F77 %30.05 in9.0 miNorth (10°)11.5 mph19.6 mph0.00 inOvercast
9:53 PM46.9 °F39.9 °F77 %30.07 in10.0 miNorth (360°)11.5 mph0.00 inOvercast
10:46 PM46.0 °F39.9 °F79 %30.10 in9.0 miNorth (350°)12.7 mphOvercast
10:53 PM46.0 °F39.9 °F79 %30.10 in9.0 miNorth (360°)10.4 mphOvercast
11:29 PM45.0 °F39.0 °F80 %30.11 in9.0 miNorth (360°)13.8 mph23.0 mphOvercast
11:53 PM45.0 °F37.9 °F76 %30.11 in10.0 miNorth (360°)13.8 mphOvercast
Hourly data recorded from KILM, located miles away from Wilmington, North Carolina







STORIES FROM OUR PARTNERS